Weather History for KLEE - January, 2014

Change the Weather History Date:

Friday, January 3, 2014

  Actual Average Record
Temperature  
Mean Temperature 49 °F -  
Max Temperature 57 °F 70 °F 83 °F (1967)
Min Temperature 39 °F 49 °F 25 °F (1979)
Degree Days  
Heating Degree Days 16    
Moisture  
Dew Point 35 °F    
Average Humidity 63    
Maximum Humidity 88    
Minimum Humidity 39    
Precipitation  
Precipitation 0.00 in - - ()
Sea Level Pressure  
Sea Level Pressure 30.17 in    
Wind  
Wind Speed 13 mph (North)    
Max Wind Speed 18 mph    
Max Gust Speed 29 mph    
Visibility 10 miles    
Events      
Averages and records for this station are not official NWS values.
T = Trace of Precipitation, MM = Missing Value Source: NWS Daily Summary

Daily Weather History Graph

Daily Weather History Graph

Search for Another Location

Airport or City:

Trip Planner

Search our weather history database for the weather conditions in past years. The results will help you decide how hot, cold, wet, or windy it might be!

Date:

Astronomy

Jan. 03, 2014 Rise Set
Actual Time 7:20 AM EST 5:42 PM EST
Civil Twilight 6:55 AM EST 6:08 PM EST
Nautical Twilight 6:25 AM EST 6:38 PM EST
Astronomical Twilight 5:56 AM EST 7:06 PM EST
Moon 8:59 AM EST (1/3) 8:34 PM EST (1/3)
Length of Visible Light 11h 13m
Length of Day
10h 21m
Waxing Crescent, 8% of the Moon is Illuminated
Jan 3
Waxing Crescent
Jan 7
First Quarter
Jan 15
Full
Jan 24
Last Quarter
Jan 30
New

Hourly Weather History & Observations

Time (EST) Temp. Windchill Dew Point Humidity Pressure Visibility Wind Dir Wind Speed Gust Speed Precip Events Conditions
12:11 AM 57.2 °F - 53.6 °F 88% 30.00 in 10.0 mi WNW 12.7 mph 20.7 mph N/A   Mostly Cloudy
12:19 AM 57.2 °F - 51.8 °F 82% 30.00 in 10.0 mi NW 11.5 mph 21.9 mph N/A   Scattered Clouds
12:53 AM 55.9 °F - 48.9 °F 77% 30.01 in 10.0 mi NW 11.5 mph 25.3 mph N/A   Scattered Clouds
1:06 AM 55.4 °F - 48.2 °F 77% 30.02 in 10.0 mi NW 10.4 mph 20.7 mph N/A   Mostly Cloudy
1:29 AM 55.4 °F - 48.2 °F 77% 30.03 in 10.0 mi NW 13.8 mph 21.9 mph N/A   Scattered Clouds
1:36 AM 53.6 °F - 48.2 °F 82% 30.03 in 10.0 mi NW 12.7 mph 21.9 mph N/A   Mostly Cloudy
1:53 AM 53.1 °F - 46.0 °F 77% 30.04 in 10.0 mi NW 15.0 mph 27.6 mph N/A   Mostly Cloudy
2:06 AM 53.6 °F - 44.6 °F 72% 30.05 in 10.0 mi NW 12.7 mph 25.3 mph N/A   Scattered Clouds
2:53 AM 51.1 °F - 44.1 °F 77% 30.06 in 10.0 mi NNW 13.8 mph 20.7 mph N/A   Partly Cloudy
3:16 AM 50.0 °F - 39.2 °F 66% 30.07 in 10.0 mi NNW 17.3 mph 23.0 mph N/A   Mostly Cloudy
3:24 AM 48.2 °F - 35.6 °F 62% 30.07 in 10.0 mi NNW 13.8 mph 23.0 mph N/A   Scattered Clouds
3:53 AM 48.9 °F - 33.1 °F 54% 30.08 in 10.0 mi North 15.0 mph 24.2 mph N/A   Clear
4:53 AM 46.9 °F - 30.9 °F 54% 30.10 in 10.0 mi North 9.2 mph - N/A   Clear
5:53 AM 45.0 °F 37.4 °F 27.0 °F 49% 30.12 in 10.0 mi NNW 18.4 mph 28.8 mph N/A   Clear
6:53 AM 43.0 °F 36.8 °F 28.0 °F 56% 30.14 in 10.0 mi North 11.5 mph - N/A   Clear
7:53 AM 42.1 °F 36.1 °F 28.0 °F 58% 30.18 in 10.0 mi North 10.4 mph - N/A   Clear
8:53 AM 41.0 °F 33.1 °F 25.0 °F 53% 30.22 in 10.0 mi North 15.0 mph 20.7 mph N/A   Clear
9:53 AM 41.0 °F 32.8 °F 26.1 °F 55% 30.25 in 10.0 mi North 16.1 mph 23.0 mph N/A   Clear
10:53 AM 42.1 °F 35.7 °F 24.1 °F 49% 30.27 in 10.0 mi NNE 11.5 mph 20.7 mph N/A   Clear
11:53 AM 43.0 °F 36.4 °F 24.1 °F 47% 30.26 in 10.0 mi NNE 12.7 mph 19.6 mph N/A   Clear
12:53 PM 46.0 °F 39.6 °F 23.0 °F 40% 30.24 in 10.0 mi NE 15.0 mph - N/A   Clear
1:53 PM 46.9 °F - 23.0 °F 39% 30.22 in 10.0 mi NNE 12.7 mph 20.7 mph N/A   Clear
2:53 PM 48.9 °F - 26.1 °F 41% 30.22 in 10.0 mi NE 10.4 mph - N/A   Clear
3:53 PM 48.0 °F - 28.9 °F 48% 30.25 in 10.0 mi East 11.5 mph 19.6 mph N/A   Clear
4:53 PM 46.0 °F 40.2 °F 30.0 °F 54% 30.28 in 10.0 mi NE 12.7 mph - N/A   Partly Cloudy
5:53 PM 44.1 °F 36.8 °F 32.0 °F 63% 30.30 in 10.0 mi ENE 16.1 mph 20.7 mph N/A   Overcast
6:53 PM 44.1 °F 37.4 °F 33.1 °F 65% 30.31 in 10.0 mi NNE 13.8 mph - N/A   Overcast
7:53 PM 43.0 °F 36.8 °F 34.0 °F 71% 30.31 in 10.0 mi North 11.5 mph - N/A   Overcast
8:53 PM 42.1 °F 36.1 °F 33.1 °F 70% 30.32 in 10.0 mi North 10.4 mph - N/A   Overcast
9:53 PM 42.1 °F 36.6 °F 34.0 °F 73% 30.32 in 10.0 mi North 9.2 mph - N/A   Overcast
10:53 PM 41.0 °F 35.2 °F 33.1 °F 73% 30.32 in 10.0 mi North 9.2 mph - N/A   Mostly Cloudy
11:53 PM 39.9 °F 33.9 °F 33.1 °F 77% 30.29 in 10.0 mi North 9.2 mph - N/A   Clear